Location: El Recuerdo
(3.6589°N, 75.6172°W)
Time: 22:56:58
(UTC+00:00)

Daily predictions for brighter satellites

Satellite Brightness Start Highest point End
(mag) Time Altitude Azimuth Time Altitude Azimuth Time Altitude Azimuth
Meteor 1-5 Rocket 4.2 23:11:02 10° N 23:16:35 79° E 23:22:22 10° S
BlueWalker 3 1.8 23:13:05 10° NNW 23:16:38 59° NE 23:20:12 10° SE
Cosmos 1437 Rocket 3.7 23:16:16 10° SSE 23:19:09 23° E 23:21:59 10° NE
Cosmos 1607 4.0 23:18:42 10° NNW 23:25:01 86° ENE 23:31:24 10° SSE
Cosmos 2219 Rocket 3.2 23:20:57 10° SSE 23:25:42 28° ESE 23:30:25 10° NE
USA 81 4.0 23:20:44 10° N 23:25:58 74° E 23:31:13 10° S
Ariane H10 4.1 23:10:17 10° W 23:26:23 86° S 23:29:51 10° E
Cosmos 2333 Rocket 2.4 23:20:44 10° SSW 23:26:26 82° WNW 23:32:10 10° NNE
Cosmos 2227 Rocket 2.2 23:25:26 10° N 23:31:01 68° ENE 23:36:38 10° SSE
Cosmos 1842 4.1 23:30:28 10° SE 23:33:03 21° E 23:34:56 14° NE
MOS 1 Rocket 3.8 23:29:07 10° S 23:33:38 63° W 23:38:24 10° NNW
IRS-P3 4.2 23:29:32 10° SSE 23:34:52 89° WSW 23:40:10 10° NNW
Cosmos 2322 Rocket 2.2 23:31:03 10° SSW 23:36:42 90° WNW 23:42:23 10° NNE
Cosmos 2285 Rocket 4.0 23:31:26 10° S 23:37:42 82° ESE 23:43:58 10° NNE
ARIANE DEB (SYLDA) 2.6 23:34:33 10° W 23:38:50 58° S 23:43:01 10° ESE
Cosmos 1538 Rocket 4.2 23:35:32 10° N 23:40:41 50° ENE 23:45:51 10° SSE
YAOGAN 1 2.8 23:37:04 10° SSE 23:41:07 44° ENE 23:45:09 10° N
Cosmos 1125 Rocket 4.2 23:37:00 10° SSE 23:41:43 33° ESE 23:45:29 15° NE
NOSS 3-1 (A) 2.9 23:37:45 10° S 23:42:10 48° ESE 23:45:26 16° NE
Spot 4 Rocket 4.3 23:37:26 10° SSE 23:42:17 45° ENE 23:47:06 10° N
KORONAS-FOTON 3.4 23:40:18 10° S 23:43:40 61° E 23:47:02 10° NNE
GPS 2-12 Rocket1 3.0 23:40:39 10° WSW 23:44:54 63° NNW 23:47:47 20° ENE
CZ-2D R/B 3.4 23:41:23 10° SSE 23:45:33 64° ENE 23:49:42 10° N
Cosmos 1805 2.7 23:42:49 10° N 23:46:09 89° E 23:49:30 10° S
Cosmos 2315 Rocket 4.0 23:47:00 10° S 23:53:14 64° E 23:59:29 10° NNE
Tiangong -1.1 23:50:58 10° SSW 23:53:51 32° SE 23:54:43 27° ESE
USA 59 Rocket 2.8 23:51:41 10° WSW 23:55:27 17° WNW 23:58:33 10° NNW
